Regional Weather Roundup
Issued by NWS

Home | Current Version | Previous Version | Graphics & Text | Print | Product List | Glossary On
Versions: 1 2 3 4 5 6 7 8 9 10 11 12 13 14 15 16 17 18 19 20 21 22 23 24 25 26 27 28 29 30 31 32 33 34 35 36 37 38 39 40 41 42 43 44 45 46 47 48 49 50
000
ASUS45 KABQ 130701
RWRNM
NEW MEXICO REGIONAL WEATHER ROUNDUP
NATIONAL WEATHER SERVICE ALBUQUERQUE NM
1200 AM MST WED DEC 13 2017

NOTE: "FAIR" MEANS FEW OR NO CLOUDS BELOW 12,000 FEET AGL WITH NO
       SIGNIFICANT WEATHER OR OBSTRUCTIONS TO VISION.

      THIS PRODUCT IS RELEASED AS TWO VERSIONS.  ONE VERSION NEAR
      THE TOP OF THE HOUR CONTAINING PRELIMINARY DATA FROM ALBUQUERQUE
      AND OTHER STATIONS.  A FINAL VERSION WITH ADDITIONAL DATA IS
      ISSUED ABOUT 10 MINUTES AFTER THE HOUR.

NMZ501-503-504-510>518-130800-
NORTHWEST PLATEAU/NORTHCENTRAL MOUNTAINS

CITY           SKY/WX    TMP DP  RH WIND       PRES   REMARKS
FARMINGTON     FAIR      16  -2  45 NE8       30.28F WCI   5
LOS ALAMOS     FAIR      37   5  25 CALM      30.28F
SANTA FE       FAIR      24   6  46 N8        30.26F WCI  15
TAOS           FAIR      16   1  51 N5        30.31F WCI   9
ANGEL FIRE     FAIR      10   7  88 CALM      30.31F

$$
NMZ402-403-502-505>509-130800-
WESTCENTRAL MOUNTAINS/SOUTHWEST MOUNTAINS

CITY           SKY/WX    TMP DP  RH WIND       PRES   REMARKS
GALLUP         FAIR      13  -7  40 CALM      30.31S
GRANTS         FAIR      17  -7  34 N8        30.32S WCI   6
SILVER CITY    FAIR      27   2  33 N10       30.27F WCI  17

$$
NMZ407-409-411-412-130800-
SOUTHERN DESERTS

CITY           SKY/WX    TMP DP  RH WIND       PRES   REMARKS
DEMING         FAIR      31   6  35 NW6       30.25F WCI  25
LAS CRUCES     FAIR      31   9  39 NW5       30.26F WCI  26
HOLLOMAN AFB   FAIR      29   4  34 CALM      30.28F
ALAMOGORDO     FAIR      32   7  34 NE5       30.27F WCI  27
T OR C         FAIR      34   4  28 W9        30.26F WCI  27

$$
NMZ519>523-130800-
CENTRAL VALLEYS/CENTRAL HIGHLANDS

CITY           SKY/WX    TMP DP  RH WIND       PRES   REMARKS
ALBUQUERQUE    FAIR      36   3  25 SE3       30.27F
MORIARTY ARPT  FAIR      17   1  48 CALM      30.27S
CLINES CORNERS FAIR      28   3  34 NW15      30.24F WCI  16
BELEN          FAIR      23   1  38 CALM      30.27S
SOCORRO        FAIR      30   3  31 SW7       30.26F WCI  23

$$
NMZ524>526-539-540-130800-
SOUTHCENTRAL MOUNTAINS

CITY           SKY/WX    TMP DP  RH WIND       PRES   REMARKS
RUIDOSO        FAIR      34   0  23 W9        30.27F WCI  26

$$
NMZ527>531-130800-
NORTHEAST HIGHLANDS/NORTHEAST PLAINS

CITY           SKY/WX    TMP DP  RH WIND       PRES   REMARKS
LAS VEGAS      FAIR      29  10  45 NE6       30.19F WCI  23
RATON          FAIR      23   8  52 NE10      30.16F WCI  12
CLAYTON        FAIR      41  12  30 W13       30.09F

$$
NMZ532>537-130800-
EASTCENTRAL PLAINS

CITY           SKY/WX    TMP DP  RH WIND       PRES   REMARKS
SANTA ROSA     FAIR      40   6  23 SW9       30.15F WCI  35
TUCUMCARI      FAIR      32   8  36 W8        30.10F WCI  25
CANNON AFB     NOT AVBL
CLOVIS AIRPORT FAIR      34   9  35 W10       30.16F WCI  26

$$
NMZ028-029-538-130800-
SOUTHEAST PLAINS

CITY           SKY/WX    TMP DP  RH WIND       PRES   REMARKS
ROSWELL        FAIR      38   8  29 NW6       30.18F WCI  33
ARTESIA        FAIR      32   5  32 CALM      30.20F
CARLSBAD       FAIR      29  20  69 NW6       30.18F WCI  23
HOBBS          FAIR      28  12  50 W10       30.19F WCI  19


$$



USA.gov is the U.S. government's official web portal to all federal, state and local government web resources and services.